Year,Month,Day,Hour,Minute,Value (Times are PST for temperature in C)
2020,07,06,00,00,13.90
2020,07,06,00,01,13.90
2020,07,06,00,02,13.90
2020,07,06,00,03,13.90
2020,07,06,00,04,13.90
2020,07,06,00,05,13.90
2020,07,06,00,06,13.90
2020,07,06,00,07,13.90
2020,07,06,00,08,13.80
2020,07,06,00,09,13.80
2020,07,06,00,10,13.80
2020,07,06,00,11,13.80
2020,07,06,00,12,13.80
2020,07,06,00,13,13.80
2020,07,06,00,14,13.80
2020,07,06,00,15,13.80
2020,07,06,00,16,13.80
2020,07,06,00,17,13.80
2020,07,06,00,18,13.80
2020,07,06,00,19,13.80
2020,07,06,00,20,13.70
2020,07,06,00,21,13.70
2020,07,06,00,22,13.70
2020,07,06,00,23,13.70
2020,07,06,00,24,13.70
2020,07,06,00,25,13.70
2020,07,06,00,26,13.70
2020,07,06,00,27,13.70
2020,07,06,00,28,13.70
2020,07,06,00,29,13.70
2020,07,06,00,30,13.70
2020,07,06,00,31,13.70
2020,07,06,00,32,13.70
2020,07,06,00,33,13.70
2020,07,06,00,34,13.70
2020,07,06,00,35,13.60
2020,07,06,00,36,13.60
2020,07,06,00,37,13.60
2020,07,06,00,38,13.60
2020,07,06,00,39,13.60
2020,07,06,00,40,13.60
2020,07,06,00,41,13.60
2020,07,06,00,42,13.60
2020,07,06,00,43,13.60
2020,07,06,00,44,13.60
2020,07,06,00,45,13.50
2020,07,06,00,46,13.50
2020,07,06,00,47,13.50
2020,07,06,00,48,13.40
2020,07,06,00,49,13.40
2020,07,06,00,50,13.40
2020,07,06,00,51,13.40
2020,07,06,00,52,13.40
2020,07,06,00,53,13.40
2020,07,06,00,54,13.30
2020,07,06,00,55,13.30
2020,07,06,00,56,13.30
2020,07,06,00,57,13.30
2020,07,06,00,58,13.30
2020,07,06,00,59,13.30
2020,07,06,01,00,13.30
2020,07,06,01,01,13.30
2020,07,06,01,02,13.30
2020,07,06,01,03,13.30
2020,07,06,01,04,13.30
2020,07,06,01,05,13.30
2020,07,06,01,06,13.30
2020,07,06,01,07,13.30
2020,07,06,01,08,13.30
2020,07,06,01,09,13.30
2020,07,06,01,10,13.30
2020,07,06,01,11,13.30
2020,07,06,01,12,13.30
2020,07,06,01,13,13.30
2020,07,06,01,14,13.30
2020,07,06,01,15,13.30
2020,07,06,01,16,13.30
2020,07,06,01,17,13.30
2020,07,06,01,18,13.30
2020,07,06,01,19,13.30
2020,07,06,01,20,13.30
2020,07,06,01,21,13.30
2020,07,06,01,22,13.30
2020,07,06,01,23,13.30
2020,07,06,01,24,13.30
2020,07,06,01,25,13.30
2020,07,06,01,26,13.30
2020,07,06,01,27,13.30
2020,07,06,01,28,13.30
2020,07,06,01,29,13.30
2020,07,06,01,30,13.30
2020,07,06,01,31,13.30
2020,07,06,01,32,13.30
2020,07,06,01,33,13.30
2020,07,06,01,34,13.30
2020,07,06,01,35,13.30
2020,07,06,01,36,13.30
2020,07,06,01,37,13.30
2020,07,06,01,38,13.30
2020,07,06,01,39,13.30
2020,07,06,01,40,13.30
2020,07,06,01,41,13.30
2020,07,06,01,42,13.20
2020,07,06,01,43,13.20
2020,07,06,01,44,13.20
2020,07,06,01,45,13.20
2020,07,06,01,46,13.20
2020,07,06,01,47,13.20
2020,07,06,01,48,13.20
2020,07,06,01,49,13.20
2020,07,06,01,50,13.20
2020,07,06,01,51,13.20
2020,07,06,01,52,13.20
2020,07,06,01,53,13.20
2020,07,06,01,54,13.20
2020,07,06,01,55,13.20
2020,07,06,01,56,13.10
2020,07,06,01,57,13.20
2020,07,06,01,58,13.20
2020,07,06,01,59,13.10
2020,07,06,02,00,13.10
2020,07,06,02,01,13.10
2020,07,06,02,02,13.10
2020,07,06,02,03,13.10
2020,07,06,02,04,13.10
2020,07,06,02,05,13.10
2020,07,06,02,06,13.10
2020,07,06,02,07,13.10
2020,07,06,02,08,13.10
2020,07,06,02,09,13.10
2020,07,06,02,10,13.10
2020,07,06,02,11,13.00
2020,07,06,02,12,13.00
2020,07,06,02,13,13.00
2020,07,06,02,14,13.00
2020,07,06,02,15,13.00
2020,07,06,02,16,13.00
2020,07,06,02,17,12.90
2020,07,06,02,18,12.90
2020,07,06,02,19,12.90
2020,07,06,02,20,13.00
2020,07,06,02,21,12.90
2020,07,06,02,22,12.90
2020,07,06,02,23,12.90
2020,07,06,02,24,12.90
2020,07,06,02,25,12.90
2020,07,06,02,26,12.90
2020,07,06,02,27,12.90
2020,07,06,02,28,12.80
2020,07,06,02,29,12.80
2020,07,06,02,30,12.80
2020,07,06,02,31,12.80
2020,07,06,02,32,12.80
2020,07,06,02,33,12.80
2020,07,06,02,34,12.70
2020,07,06,02,35,12.70
2020,07,06,02,36,12.70
2020,07,06,02,37,12.60
2020,07,06,02,38,12.60
2020,07,06,02,39,12.60
2020,07,06,02,40,12.60
2020,07,06,02,41,12.60
2020,07,06,02,42,12.50
2020,07,06,02,43,12.50
2020,07,06,02,44,12.50
2020,07,06,02,45,12.50
2020,07,06,02,46,12.60
2020,07,06,02,47,12.60
2020,07,06,02,48,12.60
2020,07,06,02,49,12.60
2020,07,06,02,50,12.60
2020,07,06,02,51,12.60
2020,07,06,02,52,12.60
2020,07,06,02,53,12.60
2020,07,06,02,54,12.60
2020,07,06,02,55,12.60
2020,07,06,02,56,12.60
2020,07,06,02,57,12.70
2020,07,06,02,58,12.70
2020,07,06,02,59,12.70
2020,07,06,03,00,12.70
2020,07,06,03,01,12.70
2020,07,06,03,02,12.70
2020,07,06,03,03,12.70
2020,07,06,03,04,12.70
2020,07,06,03,05,12.60
2020,07,06,03,06,12.70
2020,07,06,03,07,12.60
2020,07,06,03,08,12.60
2020,07,06,03,09,12.60
2020,07,06,03,10,12.70
2020,07,06,03,11,12.70
2020,07,06,03,12,12.60
2020,07,06,03,13,12.70
2020,07,06,03,14,12.60
2020,07,06,03,15,12.70
2020,07,06,03,16,12.70
2020,07,06,03,17,12.70
2020,07,06,03,18,12.70
2020,07,06,03,19,12.70
2020,07,06,03,20,12.70
2020,07,06,03,21,12.70
2020,07,06,03,22,12.70
2020,07,06,03,23,12.70
2020,07,06,03,24,12.70
2020,07,06,03,25,12.70
2020,07,06,03,26,12.70
2020,07,06,03,27,12.70
2020,07,06,03,28,12.70
2020,07,06,03,29,12.70
2020,07,06,03,30,12.70
2020,07,06,03,31,12.70
2020,07,06,03,32,12.70
2020,07,06,03,33,12.70
2020,07,06,03,34,12.70
2020,07,06,03,35,12.70
2020,07,06,03,36,12.70
2020,07,06,03,37,12.70
2020,07,06,03,38,12.70
2020,07,06,03,39,12.70
2020,07,06,03,40,12.70
2020,07,06,03,41,12.70
2020,07,06,03,42,12.70
2020,07,06,03,43,12.70
2020,07,06,03,44,12.70
2020,07,06,03,45,12.70
2020,07,06,03,46,12.70
2020,07,06,03,47,12.70
2020,07,06,03,48,12.70
2020,07,06,03,49,12.70
2020,07,06,03,50,12.70
2020,07,06,03,51,12.70
2020,07,06,03,52,12.70
2020,07,06,03,53,12.70
2020,07,06,03,54,12.70
2020,07,06,03,55,12.70
2020,07,06,03,56,12.70
2020,07,06,03,57,12.60
2020,07,06,03,58,12.60
2020,07,06,03,59,12.60
2020,07,06,04,00,12.60
2020,07,06,04,01,12.60
2020,07,06,04,02,12.60
2020,07,06,04,03,12.60
2020,07,06,04,04,12.50
2020,07,06,04,05,12.50
2020,07,06,04,06,12.50
2020,07,06,04,07,12.50
2020,07,06,04,08,12.40
2020,07,06,04,09,12.40
2020,07,06,04,10,12.40
2020,07,06,04,11,12.40
2020,07,06,04,12,12.40
2020,07,06,04,13,12.40
2020,07,06,04,14,12.30
2020,07,06,04,15,12.40
2020,07,06,04,16,12.30
2020,07,06,04,17,12.30
2020,07,06,04,18,12.30
2020,07,06,04,19,12.30
2020,07,06,04,20,12.30
2020,07,06,04,21,12.30
2020,07,06,04,22,12.30
2020,07,06,04,23,12.30
2020,07,06,04,24,12.30
2020,07,06,04,25,12.20
2020,07,06,04,26,12.20
2020,07,06,04,27,12.20
2020,07,06,04,28,12.20
2020,07,06,04,29,12.20
2020,07,06,04,30,12.20
2020,07,06,04,31,12.20
2020,07,06,04,32,12.20
2020,07,06,04,33,12.20
2020,07,06,04,34,12.10
2020,07,06,04,35,12.10
2020,07,06,04,36,12.20
2020,07,06,04,37,12.10
2020,07,06,04,38,12.10
2020,07,06,04,39,12.10
2020,07,06,04,40,12.10
2020,07,06,04,41,12.10
2020,07,06,04,42,12.10
2020,07,06,04,43,12.10
2020,07,06,04,44,12.10
2020,07,06,04,45,12.10
2020,07,06,04,46,12.10
2020,07,06,04,47,12.10
2020,07,06,04,48,12.10
2020,07,06,04,49,12.10
2020,07,06,04,50,12.10
2020,07,06,04,51,12.10
2020,07,06,04,52,12.00
2020,07,06,04,53,12.00
2020,07,06,04,54,12.10
2020,07,06,04,55,12.10
2020,07,06,04,56,12.10
2020,07,06,04,57,12.10
2020,07,06,04,58,12.10
2020,07,06,04,59,12.10
2020,07,06,05,00,12.10
2020,07,06,05,01,12.10
2020,07,06,05,02,12.10
2020,07,06,05,03,12.10
2020,07,06,05,04,12.00
2020,07,06,05,05,12.00
2020,07,06,05,06,12.00
2020,07,06,05,07,12.00
2020,07,06,05,08,11.90
2020,07,06,05,09,11.90
2020,07,06,05,10,11.90
2020,07,06,05,11,11.90
2020,07,06,05,12,11.90
2020,07,06,05,13,11.80
2020,07,06,05,14,11.80
2020,07,06,05,15,11.80
2020,07,06,05,16,11.80
2020,07,06,05,17,11.80
2020,07,06,05,18,11.80
2020,07,06,05,19,11.70
2020,07,06,05,20,11.70
2020,07,06,05,21,11.70
2020,07,06,05,22,11.70
2020,07,06,05,23,11.70
2020,07,06,05,24,11.70
2020,07,06,05,25,11.70
2020,07,06,05,26,11.70
2020,07,06,05,27,11.70
2020,07,06,05,28,11.70
2020,07,06,05,29,11.70
2020,07,06,05,30,11.70
2020,07,06,05,31,11.70
2020,07,06,05,32,11.70
2020,07,06,05,33,11.70
2020,07,06,05,34,11.70
2020,07,06,05,35,11.70
2020,07,06,05,36,11.70
2020,07,06,05,37,11.70
2020,07,06,05,38,11.60
2020,07,06,05,39,11.60
2020,07,06,05,40,11.60
2020,07,06,05,41,11.70
2020,07,06,05,42,11.70
2020,07,06,05,43,11.70
2020,07,06,05,44,11.70
2020,07,06,05,45,11.70
2020,07,06,05,46,11.70
2020,07,06,05,47,11.70
2020,07,06,05,48,11.60
2020,07,06,05,49,11.60
2020,07,06,05,50,11.60
2020,07,06,05,51,11.60
2020,07,06,05,52,11.60
2020,07,06,05,53,11.60
2020,07,06,05,54,11.60
2020,07,06,05,55,11.60
2020,07,06,05,56,11.60
2020,07,06,05,57,11.60
2020,07,06,05,58,11.60
2020,07,06,05,59,11.60
2020,07,06,06,00,11.60
2020,07,06,06,01,11.60
2020,07,06,06,02,11.60
2020,07,06,06,03,11.60
2020,07,06,06,04,11.60
2020,07,06,06,05,11.60
2020,07,06,06,06,11.60
2020,07,06,06,07,11.60
2020,07,06,06,08,11.60
2020,07,06,06,09,11.60
2020,07,06,06,10,11.60
2020,07,06,06,11,11.60
2020,07,06,06,12,11.60
2020,07,06,06,13,11.60
2020,07,06,06,14,11.70
2020,07,06,06,15,11.70
2020,07,06,06,16,11.70
2020,07,06,06,17,11.70
2020,07,06,06,18,11.70
2020,07,06,06,19,11.70
2020,07,06,06,20,11.70
2020,07,06,06,21,11.70
2020,07,06,06,22,11.70
2020,07,06,06,23,11.80
2020,07,06,06,24,11.80
2020,07,06,06,25,11.80
2020,07,06,06,26,11.80
2020,07,06,06,27,11.80
2020,07,06,06,28,11.80
2020,07,06,06,29,11.80
2020,07,06,06,30,11.80
2020,07,06,06,31,11.80
2020,07,06,06,32,11.90
2020,07,06,06,33,11.90
2020,07,06,06,34,11.90
2020,07,06,06,35,11.90
2020,07,06,06,36,11.90
2020,07,06,06,37,11.90
2020,07,06,06,38,11.90
2020,07,06,06,39,11.90
2020,07,06,06,40,11.90
2020,07,06,06,41,12.00
2020,07,06,06,42,12.00
2020,07,06,06,43,12.00
2020,07,06,06,44,12.00
2020,07,06,06,45,12.00
2020,07,06,06,46,12.10
2020,07,06,06,47,12.10
2020,07,06,06,48,12.10
2020,07,06,06,49,12.10
2020,07,06,06,50,12.10
2020,07,06,06,51,12.10
2020,07,06,06,52,12.10
2020,07,06,06,53,12.10
2020,07,06,06,54,12.10
2020,07,06,06,55,12.10
2020,07,06,06,56,12.10
2020,07,06,06,57,12.10
2020,07,06,06,58,12.10
2020,07,06,06,59,12.10
2020,07,06,07,00,12.10
2020,07,06,07,01,12.10
2020,07,06,07,02,12.10
2020,07,06,07,03,12.10
2020,07,06,07,04,12.20
2020,07,06,07,05,12.20
2020,07,06,07,06,12.20
2020,07,06,07,07,12.20
2020,07,06,07,08,12.20
2020,07,06,07,09,12.30
2020,07,06,07,10,12.30
2020,07,06,07,11,12.30
2020,07,06,07,12,12.40
2020,07,06,07,13,12.40
2020,07,06,07,14,12.50
2020,07,06,07,15,12.60
2020,07,06,07,16,12.70
2020,07,06,07,17,12.80
2020,07,06,07,18,12.90
2020,07,06,07,19,13.00
2020,07,06,07,20,13.10
2020,07,06,07,21,13.10
2020,07,06,07,22,13.20
2020,07,06,07,23,13.20
2020,07,06,07,24,13.30
2020,07,06,07,25,13.30
2020,07,06,07,26,13.40
2020,07,06,07,27,13.40
2020,07,06,07,28,13.40
2020,07,06,07,29,13.40
2020,07,06,07,30,13.50
2020,07,06,07,31,13.60
2020,07,06,07,32,13.60
2020,07,06,07,33,13.60
2020,07,06,07,34,13.60
2020,07,06,07,35,13.70
2020,07,06,07,36,13.70
2020,07,06,07,37,13.80
2020,07,06,07,38,13.80
2020,07,06,07,39,13.90
2020,07,06,07,40,14.00
2020,07,06,07,41,14.00
2020,07,06,07,42,14.00
2020,07,06,07,43,14.10
2020,07,06,07,44,14.10
2020,07,06,07,45,14.20
2020,07,06,07,46,14.30
2020,07,06,07,47,14.30
2020,07,06,07,48,14.40
2020,07,06,07,49,14.50
2020,07,06,07,50,14.50
2020,07,06,07,51,14.60
2020,07,06,07,52,14.60
2020,07,06,07,53,14.60
2020,07,06,07,54,14.60
2020,07,06,07,55,14.60
2020,07,06,07,56,14.70
2020,07,06,07,57,14.70
2020,07,06,07,58,14.70
2020,07,06,07,59,14.80
2020,07,06,08,00,14.80
2020,07,06,08,01,14.90
2020,07,06,08,02,14.90
2020,07,06,08,03,15.00
2020,07,06,08,04,15.00
2020,07,06,08,05,15.00
2020,07,06,08,06,15.00
2020,07,06,08,07,15.10
2020,07,06,08,08,15.10
2020,07,06,08,09,15.10
2020,07,06,08,10,15.20
2020,07,06,08,11,15.20
2020,07,06,08,12,15.20
2020,07,06,08,13,15.20
2020,07,06,08,14,15.20
2020,07,06,08,15,15.20
2020,07,06,08,16,15.20
2020,07,06,08,17,15.30
2020,07,06,08,18,15.30
2020,07,06,08,19,15.30
2020,07,06,08,20,15.40
2020,07,06,08,21,15.40
2020,07,06,08,22,15.40
2020,07,06,08,23,15.40
2020,07,06,08,24,15.40
2020,07,06,08,25,15.50
2020,07,06,08,26,15.50
2020,07,06,08,27,15.50
2020,07,06,08,28,15.60
2020,07,06,08,29,15.60
2020,07,06,08,30,15.60
2020,07,06,08,31,15.70
2020,07,06,08,32,15.70
2020,07,06,08,33,15.70
2020,07,06,08,34,15.70
2020,07,06,08,35,15.70
2020,07,06,08,36,15.70
2020,07,06,08,37,15.70
2020,07,06,08,38,15.80
2020,07,06,08,39,15.70
2020,07,06,08,40,15.80
2020,07,06,08,41,15.80
2020,07,06,08,42,15.80
2020,07,06,08,43,15.80
2020,07,06,08,44,15.80
2020,07,06,08,45,15.80
2020,07,06,08,46,15.90
2020,07,06,08,47,15.90
2020,07,06,08,48,15.90
2020,07,06,08,49,16.00
2020,07,06,08,50,16.00
2020,07,06,08,51,16.00
2020,07,06,08,52,16.00
2020,07,06,08,53,16.00
2020,07,06,08,54,16.10
2020,07,06,08,55,16.10
2020,07,06,08,56,16.20
2020,07,06,08,57,16.20
2020,07,06,08,58,16.30
2020,07,06,08,59,16.30
2020,07,06,09,00,16.30
2020,07,06,09,01,16.40
2020,07,06,09,02,16.40
2020,07,06,09,03,16.50
2020,07,06,09,04,16.60
2020,07,06,09,05,16.70
2020,07,06,09,06,16.70
2020,07,06,09,07,16.80
2020,07,06,09,08,16.80
2020,07,06,09,09,16.80
2020,07,06,09,10,16.80
2020,07,06,09,11,16.80
2020,07,06,09,12,16.80
2020,07,06,09,13,16.80
2020,07,06,09,14,16.80
2020,07,06,09,15,16.80
2020,07,06,09,16,16.80
2020,07,06,09,17,16.90
2020,07,06,09,18,16.90
2020,07,06,09,19,16.90
2020,07,06,09,20,16.90
2020,07,06,09,21,17.00
2020,07,06,09,22,17.00
2020,07,06,09,23,17.10
2020,07,06,09,24,17.20
2020,07,06,09,25,17.20
2020,07,06,09,26,17.20
2020,07,06,09,27,17.20
2020,07,06,09,28,17.20
2020,07,06,09,29,17.30
2020,07,06,09,30,17.30
2020,07,06,09,31,17.30
2020,07,06,09,32,17.30
2020,07,06,09,33,17.30
2020,07,06,09,34,17.40
2020,07,06,09,35,17.40
2020,07,06,09,36,17.50
2020,07,06,09,37,17.40
2020,07,06,09,38,17.50
2020,07,06,09,39,17.50
2020,07,06,09,40,17.50
2020,07,06,09,41,17.50
2020,07,06,09,42,17.40
2020,07,06,09,43,17.40
2020,07,06,09,44,17.40
2020,07,06,09,45,17.40
2020,07,06,09,46,17.40
2020,07,06,09,47,17.50
2020,07,06,09,48,17.60
2020,07,06,09,49,17.60
2020,07,06,09,50,17.70
2020,07,06,09,51,17.70
2020,07,06,09,52,17.70
2020,07,06,09,53,17.70
2020,07,06,09,54,17.70
2020,07,06,09,55,17.60
2020,07,06,09,56,17.50
2020,07,06,09,57,17.50
2020,07,06,09,58,17.50
2020,07,06,09,59,17.50
2020,07,06,10,00,17.50
2020,07,06,10,01,17.50
2020,07,06,10,02,17.60
2020,07,06,10,03,17.60
2020,07,06,10,04,17.60
2020,07,06,10,05,17.70
2020,07,06,10,06,17.60
2020,07,06,10,07,17.60
2020,07,06,10,08,17.60
2020,07,06,10,09,17.60
2020,07,06,10,10,17.50
2020,07,06,10,11,17.50
2020,07,06,10,12,17.50
2020,07,06,10,13,17.50
2020,07,06,10,14,17.50
2020,07,06,10,15,17.60
2020,07,06,10,16,17.70
2020,07,06,10,17,17.70
2020,07,06,10,18,17.80
2020,07,06,10,19,17.90
2020,07,06,10,20,17.90
2020,07,06,10,21,17.90
2020,07,06,10,22,18.00
2020,07,06,10,23,18.00
2020,07,06,10,24,18.10
2020,07,06,10,25,18.10
2020,07,06,10,26,18.10
2020,07,06,10,27,18.10
2020,07,06,10,28,18.10
2020,07,06,10,29,18.10
2020,07,06,10,30,18.10
2020,07,06,10,31,18.10
2020,07,06,10,32,18.10
2020,07,06,10,33,18.20
2020,07,06,10,34,18.20
2020,07,06,10,35,18.30
2020,07,06,10,36,18.30
2020,07,06,10,37,18.40
2020,07,06,10,38,18.40
2020,07,06,10,39,18.40
2020,07,06,10,40,18.50
2020,07,06,10,41,18.50
2020,07,06,10,42,18.60
2020,07,06,10,43,18.60
2020,07,06,10,44,18.60
2020,07,06,10,45,18.60
2020,07,06,10,46,18.70
2020,07,06,10,47,18.70
2020,07,06,10,48,18.80
2020,07,06,10,49,18.90
2020,07,06,10,50,18.90
2020,07,06,10,51,18.90
2020,07,06,10,52,18.90
2020,07,06,10,53,18.90
2020,07,06,10,54,18.90
2020,07,06,10,55,18.90
2020,07,06,10,56,18.90
2020,07,06,10,57,18.90
2020,07,06,10,58,18.90
2020,07,06,10,59,18.80
2020,07,06,11,00,18.80
2020,07,06,11,01,18.80
2020,07,06,11,02,18.90
2020,07,06,11,03,18.90
2020,07,06,11,04,18.90
2020,07,06,11,05,19.00
2020,07,06,11,06,19.00
2020,07,06,11,07,19.10
2020,07,06,11,08,19.20
2020,07,06,11,09,19.30
2020,07,06,11,10,19.30
2020,07,06,11,11,19.30
2020,07,06,11,12,19.30
2020,07,06,11,13,19.40
2020,07,06,11,14,19.50
2020,07,06,11,15,19.60
2020,07,06,11,16,19.70
2020,07,06,11,17,19.80
2020,07,06,11,18,19.80
2020,07,06,11,19,19.70
2020,07,06,11,20,19.60
2020,07,06,11,21,19.50
2020,07,06,11,22,19.50
2020,07,06,11,23,19.40
2020,07,06,11,24,19.40
2020,07,06,11,25,19.40
2020,07,06,11,26,19.40
2020,07,06,11,27,19.40
2020,07,06,11,28,19.30
2020,07,06,11,29,19.30
2020,07,06,11,30,19.20
2020,07,06,11,31,19.20
2020,07,06,11,32,19.20
2020,07,06,11,33,19.20
2020,07,06,11,34,19.20
2020,07,06,11,35,19.20
2020,07,06,11,36,19.10
2020,07,06,11,37,19.00
2020,07,06,11,38,19.00
2020,07,06,11,39,19.00
2020,07,06,11,40,19.00
2020,07,06,11,41,18.90
2020,07,06,11,42,18.90
2020,07,06,11,43,19.00
2020,07,06,11,44,19.00
2020,07,06,11,45,19.00
2020,07,06,11,46,19.00
2020,07,06,11,47,18.90
2020,07,06,11,48,18.80
2020,07,06,11,49,18.80
2020,07,06,11,50,18.70
2020,07,06,11,51,18.70
2020,07,06,11,52,18.70
2020,07,06,11,53,18.60
2020,07,06,11,54,18.60
2020,07,06,11,55,18.70
2020,07,06,11,56,18.80
2020,07,06,11,57,18.90
2020,07,06,11,58,18.90
2020,07,06,11,59,19.00
2020,07,06,12,00,19.00
2020,07,06,12,01,19.10
2020,07,06,12,02,19.10
2020,07,06,12,03,19.10
2020,07,06,12,04,19.20
2020,07,06,12,05,19.20
2020,07,06,12,06,19.30
2020,07,06,12,07,19.30
2020,07,06,12,08,19.40
2020,07,06,12,09,19.40
2020,07,06,12,10,19.40
2020,07,06,12,11,19.40
2020,07,06,12,12,19.30
2020,07,06,12,13,19.30
2020,07,06,12,14,19.30
2020,07,06,12,15,19.30
2020,07,06,12,16,19.30
2020,07,06,12,17,19.30
2020,07,06,12,18,19.30
2020,07,06,12,19,19.30
2020,07,06,12,20,19.40
2020,07,06,12,21,19.40
2020,07,06,12,22,19.40
2020,07,06,12,23,19.40
2020,07,06,12,24,19.40
2020,07,06,12,25,19.30
2020,07,06,12,26,19.30
2020,07,06,12,27,19.20
2020,07,06,12,28,19.10
2020,07,06,12,29,19.00
2020,07,06,12,30,19.00
2020,07,06,12,31,19.00
2020,07,06,12,32,19.00
2020,07,06,12,33,19.00
2020,07,06,12,34,18.80
2020,07,06,12,35,18.80
2020,07,06,12,36,18.80
2020,07,06,12,37,18.80
2020,07,06,12,38,18.90
2020,07,06,12,39,19.00
2020,07,06,12,40,19.10
2020,07,06,12,41,19.20
2020,07,06,12,42,19.20
2020,07,06,12,43,19.20
2020,07,06,12,44,19.20
2020,07,06,12,45,19.30
2020,07,06,12,46,19.30
2020,07,06,12,47,19.40
2020,07,06,12,48,19.40
2020,07,06,12,49,19.50
2020,07,06,12,50,19.70
2020,07,06,12,51,19.80
2020,07,06,12,52,19.90
2020,07,06,12,53,19.90
2020,07,06,12,54,19.90
2020,07,06,12,55,19.90
2020,07,06,12,56,19.90
2020,07,06,12,57,19.80
2020,07,06,12,58,19.70
2020,07,06,12,59,19.60
2020,07,06,13,00,19.60
2020,07,06,13,01,19.70
2020,07,06,13,02,19.80
2020,07,06,13,03,19.90
2020,07,06,13,04,20.00
2020,07,06,13,05,20.10
2020,07,06,13,06,20.10
2020,07,06,13,07,20.10
2020,07,06,13,08,20.20
2020,07,06,13,09,20.30
2020,07,06,13,10,20.30
2020,07,06,13,11,20.40
2020,07,06,13,12,20.40
2020,07,06,13,13,20.40
2020,07,06,13,14,20.30
2020,07,06,13,15,20.30
2020,07,06,13,16,20.20
2020,07,06,13,17,20.10
2020,07,06,13,18,20.00
2020,07,06,13,19,20.00
2020,07,06,13,20,20.10
2020,07,06,13,21,20.10
2020,07,06,13,22,20.10
2020,07,06,13,23,20.10
2020,07,06,13,24,20.20
2020,07,06,13,25,20.20
2020,07,06,13,26,20.20
2020,07,06,13,27,20.20
2020,07,06,13,28,20.20
2020,07,06,13,29,20.10
2020,07,06,13,30,20.10
2020,07,06,13,31,20.10
2020,07,06,13,32,20.00
2020,07,06,13,33,20.00
2020,07,06,13,34,20.10
2020,07,06,13,35,20.10
2020,07,06,13,36,20.10
2020,07,06,13,37,20.00
2020,07,06,13,38,19.90
2020,07,06,13,39,19.90
2020,07,06,13,40,19.80
2020,07,06,13,41,19.80
2020,07,06,13,42,19.70
2020,07,06,13,43,19.70
2020,07,06,13,44,19.80
2020,07,06,13,45,19.80
2020,07,06,13,46,19.90
2020,07,06,13,47,19.90
2020,07,06,13,48,20.00
2020,07,06,13,49,20.10
2020,07,06,13,50,20.20
2020,07,06,13,51,20.40
2020,07,06,13,52,20.50
2020,07,06,13,53,20.50
2020,07,06,13,54,20.60
2020,07,06,13,55,20.60
2020,07,06,13,56,20.60
2020,07,06,13,57,20.60
2020,07,06,13,58,20.60
2020,07,06,13,59,20.60
2020,07,06,14,00,20.60
2020,07,06,14,01,20.60
2020,07,06,14,02,20.60
2020,07,06,14,03,20.60
2020,07,06,14,04,20.60
2020,07,06,14,05,20.60
2020,07,06,14,06,20.50
2020,07,06,14,07,20.50
2020,07,06,14,08,20.50
2020,07,06,14,09,20.50
2020,07,06,14,10,20.50
2020,07,06,14,11,20.50
2020,07,06,14,12,20.60
2020,07,06,14,13,20.60
2020,07,06,14,14,20.70
2020,07,06,14,15,20.70
2020,07,06,14,16,20.70
2020,07,06,14,17,20.70
2020,07,06,14,18,20.60
2020,07,06,14,19,20.50
2020,07,06,14,20,20.50
2020,07,06,14,21,20.50
2020,07,06,14,22,20.50
2020,07,06,14,23,20.50
2020,07,06,14,24,20.40
2020,07,06,14,25,20.30
2020,07,06,14,26,20.30
2020,07,06,14,27,20.30
2020,07,06,14,28,20.20
2020,07,06,14,29,20.20
2020,07,06,14,30,20.20
2020,07,06,14,31,20.30
2020,07,06,14,32,20.30
2020,07,06,14,33,20.40
2020,07,06,14,34,20.40
2020,07,06,14,35,20.40
2020,07,06,14,36,20.40
2020,07,06,14,37,20.40
2020,07,06,14,38,20.40
2020,07,06,14,39,20.40
2020,07,06,14,40,20.40
2020,07,06,14,41,20.50
2020,07,06,14,42,20.50
2020,07,06,14,43,20.50
2020,07,06,14,44,20.50
2020,07,06,14,45,20.60
2020,07,06,14,46,20.60
2020,07,06,14,47,20.70
2020,07,06,14,48,20.60
2020,07,06,14,49,20.60
2020,07,06,14,50,20.50
2020,07,06,14,51,20.50
2020,07,06,14,52,20.40
2020,07,06,14,53,20.30
2020,07,06,14,54,20.30
2020,07,06,14,55,20.30
2020,07,06,14,56,20.20
2020,07,06,14,57,20.20
2020,07,06,14,58,20.20
2020,07,06,14,59,20.20
2020,07,06,15,00,20.20
2020,07,06,15,01,20.30
2020,07,06,15,02,20.30
2020,07,06,15,03,20.30
2020,07,06,15,04,20.30
2020,07,06,15,05,20.30
2020,07,06,15,06,20.30
2020,07,06,15,07,20.30
2020,07,06,15,08,20.40
2020,07,06,15,09,20.30
2020,07,06,15,10,20.30
2020,07,06,15,11,20.20
2020,07,06,15,12,20.10
2020,07,06,15,13,20.00
2020,07,06,15,14,20.00
2020,07,06,15,15,20.00
2020,07,06,15,16,20.00
2020,07,06,15,17,19.90
2020,07,06,15,18,19.90
2020,07,06,15,19,19.90
2020,07,06,15,20,19.90
2020,07,06,15,21,19.90
2020,07,06,15,22,19.90
2020,07,06,15,23,20.00
2020,07,06,15,24,20.00
2020,07,06,15,25,20.00
2020,07,06,15,26,20.00
2020,07,06,15,27,20.10
2020,07,06,15,28,20.10
2020,07,06,15,29,20.20
2020,07,06,15,30,20.20
2020,07,06,15,31,20.20
2020,07,06,15,32,20.20
2020,07,06,15,33,20.20
2020,07,06,15,34,20.20
2020,07,06,15,35,20.10
2020,07,06,15,36,20.10
2020,07,06,15,37,20.10
2020,07,06,15,38,20.10
2020,07,06,15,39,20.00
2020,07,06,15,40,20.00
2020,07,06,15,41,20.00
2020,07,06,15,42,20.00
2020,07,06,15,43,20.00
2020,07,06,15,44,20.00
2020,07,06,15,45,20.00
2020,07,06,15,46,20.00
2020,07,06,15,47,20.00
2020,07,06,15,48,19.90
2020,07,06,15,49,19.80
2020,07,06,15,50,19.80
2020,07,06,15,51,19.70
2020,07,06,15,52,19.70
2020,07,06,15,53,19.70
2020,07,06,15,54,19.70
2020,07,06,15,55,19.70
2020,07,06,15,56,19.70
2020,07,06,15,57,19.60
2020,07,06,15,58,19.60
2020,07,06,15,59,19.60
2020,07,06,16,00,19.60
2020,07,06,16,01,19.60
2020,07,06,16,02,19.50
2020,07,06,16,03,19.50
2020,07,06,16,04,19.50
2020,07,06,16,05,19.50
2020,07,06,16,06,19.50
2020,07,06,16,07,19.40
2020,07,06,16,08,19.40
2020,07,06,16,09,19.40
2020,07,06,16,10,19.30
2020,07,06,16,11,19.30
2020,07,06,16,12,19.30
2020,07,06,16,13,19.20
2020,07,06,16,14,19.20
2020,07,06,16,15,19.20
2020,07,06,16,16,19.20
2020,07,06,16,17,19.20
2020,07,06,16,18,19.10
2020,07,06,16,19,19.10
2020,07,06,16,20,19.10
2020,07,06,16,21,19.10
2020,07,06,16,22,19.10
2020,07,06,16,23,19.10
2020,07,06,16,24,19.10
2020,07,06,16,25,19.10
2020,07,06,16,26,19.10
2020,07,06,16,27,19.10
2020,07,06,16,28,19.10
2020,07,06,16,29,19.10
2020,07,06,16,30,19.10
2020,07,06,16,31,19.10
2020,07,06,16,32,19.10
2020,07,06,16,33,19.10
2020,07,06,16,34,19.10
2020,07,06,16,35,19.20
2020,07,06,16,36,19.20
2020,07,06,16,37,19.20
2020,07,06,16,38,19.20
2020,07,06,16,39,19.10
2020,07,06,16,40,19.10
2020,07,06,16,41,19.10
2020,07,06,16,42,19.00
2020,07,06,16,43,19.00
2020,07,06,16,44,18.90
2020,07,06,16,45,19.00
2020,07,06,16,46,19.00
2020,07,06,16,47,19.00
2020,07,06,16,48,19.00
2020,07,06,16,49,19.00
2020,07,06,16,50,19.00
2020,07,06,16,51,19.00
2020,07,06,16,52,18.90
2020,07,06,16,53,18.90
2020,07,06,16,54,18.90
2020,07,06,16,55,18.90
2020,07,06,16,56,18.80
2020,07,06,16,57,18.80
2020,07,06,16,58,18.90
2020,07,06,16,59,18.90
2020,07,06,17,00,18.90
2020,07,06,17,01,18.90
2020,07,06,17,02,19.00
2020,07,06,17,03,19.00
2020,07,06,17,04,19.00
2020,07,06,17,05,19.00
2020,07,06,17,06,19.10
2020,07,06,17,07,19.10
2020,07,06,17,08,19.10
2020,07,06,17,09,19.10
2020,07,06,17,10,19.10
2020,07,06,17,11,19.10
2020,07,06,17,12,19.20
2020,07,06,17,13,19.20
2020,07,06,17,14,19.20
2020,07,06,17,15,19.20
2020,07,06,17,16,19.20
2020,07,06,17,17,19.20
2020,07,06,17,18,19.20
2020,07,06,17,19,19.20